Regional Weather Roundup
Issued by NWS Grand Forks, ND

Home | Current Version | Previous Version | Text Only | Print | Product List | Glossary On
Versions: 1 2 3 4 5 6 7 8 9 10 11 12 13 14 15 16 17 18 19 20 21 22 23 24 25 26 27 28 29 30 31 32 33 34 35 36 37 38 39 40 41 42 43 44 45 46 47 48 49 50
000
ASUS43 KFGF 280331
RWRFGF
PRAIRIE TO PINES  WEATHER ROUNDUP
NATIONAL WEATHER SERVICE EASTERN NORTH DAKOTA/GRAND FORKS ND
1000 PM CDT FRI MAR 27 2015

 **SATELLITE DATA USED TO AUGMENT SKY COVER AT AUTOMATED STATIONS**
 *****  WEATHER ACROSS EASTERN NORTH DAKOTA  *****

CITY           SKY/WX    TMP DP  RH WIND       PRES   REMARKS
GRAND FORKS    CLOUDY    30  23  75 S9        30.10R WCI  22
GRAND FRKS AFB CLOUDY    29  24  81 S13       30.09R WCI  19
GRAND FRKS NWS   N/A     30 N/A N/A S3          N/A
DEVILS LAKE    CLOUDY    28  25  86 SE14      30.02R WCI  17
FARGO          CLOUDY    29  23  78 S7        30.11S WCI  22
WAHPETON ARPT  CLOUDY    32  18  55 SE6       30.11S
$$

 ***** WEATHER ACROSS CENTRAL AND WESTERN NORTH DAKOTA  *****

CITY           SKY/WX    TMP DP  RH WIND       PRES   REMARKS
BISMARCK       PTCLDY    35  31  85 NE7       29.94R
MINOT          CLOUDY    35  30  82 E3        29.95R
JAMESTOWN      CLOUDY    29  27  92 S14       30.01S FOG     WCI  18
MINOT AFB      CLOUDY    35  35  99 E5        29.94R
GARRISON         N/A     41  35  79 NE7       29.92R
WILLISTON      CLEAR     43  36  76 CALM      29.91R
DICKINSON      CLOUDY    42  32  67 E8        29.90S
HETTINGER      CLOUDY    46  34  62 NE9       29.93R
$$

 *****  OTHER AIRPORT OBSERVATIONS IN OUR AREA  *****

CITY           SKY/WX    TMP DP  RH WIND       PRES   REMARKS
WALHALLA         N/A     30  30 100 S10       30.09S WCI  21
GRAFTON AIRPOR NOT AVBL
VALLEY CITY AR CLOUDY    28  28 100 SE13      30.05S WCI  18
CANDO          CLOUDY    28  28 100 SE14      30.02S FOG     WCI  17
CAVALIER APRT    N/A     28  25  86 S8        30.10S WCI  20
GWINNER        CLOUDY    32  32 100 SE14        N/A  WCI  22
ROLLA          CLOUDY    27  27 100 SE14      30.00S FOG     WCI  15
 ***** THE ABOVE OBSERVATIONS ARE NON NWS ARE NOT QUALITY
       CONTROLLED AND MAY MIS-REPORT RAIN FOR SNOW...
$$

  *****  WEATHER ACROSS NORTHERN MINNESOTA  *****

CITY           SKY/WX    TMP DP  RH WIND       PRES   REMARKS
FLAG ISLAND    CLEAR     21  10  63 S3        30.12S
WARROAD        CLEAR     21  18  86 CALM      30.12F
ROSEAU         CLOUDY    28  18  64 CALM      30.12S
HALLOCK        CLEAR     27  25  93 SE7       30.12R WCI  19
THF RVR FALLS  PTCLDY    27  19  74 CALM      30.11S
BAUDETTE       CLEAR     27  14  58 W3        30.11R
WASKISH        PTCLDY    21  16  79 CALM      30.13R
CROOKSTON      CLOUDY    28  19  69 S6        30.12S WCI  22
STEPHEN NDAWN    N/A     27  21  80 S5          N/A  WCI  21
GREENBUSH NDAW   N/A     28  23  80 S3          N/A
$$
  *****  WEATHER ACROSS CENTRAL AND WEST MINNESOTA  *****

CITY           SKY/WX    TMP DP  RH WIND       PRES   REMARKS
FOSSTON        CLEAR     25  12  58 CALM      30.11S
BEMIDJI        PTCLDY    26   7  45 CALM      30.11R
PARK RAPIDS    CLOUDY    28  12  51 SW5       30.09S WCI  23
ELBOW LAKE     CLOUDY    30  18  61 SE6       30.11S WCI  24
WADENA         CLOUDY    25  16  68 CALM      30.12R
DETROIT LAKES  MOCLDY    28  18  64 S3        30.11S
MOORHEAD       MOCLDY    28  25  86 S5        30.12R WCI  23
FERGUS FALLS   CLOUDY    28  14  54 SE7       30.14S WCI  21
MORRIS MN      CLOUDY    30  21  69 SE8       30.11S WCI  23
STAPLES        CLOUDY    27  10  50 CALM      30.12S
$$
  *****  WEATHER ELSEWHERE ACROSS MINNESOTA  *****

CITY           SKY/WX    TMP DP  RH WIND       PRES   REMARKS
DULUTH         PTCLDY    21  12  68 E7        30.14R WCI  12
INTRNTL FALLS  MOCLDY    22  11  62 CALM      30.13R
ELY            CLEAR     21   5  49 S6        30.14R WCI  14
CLOQUET        MOCLDY    23   9  54 CALM      30.15R
WHEATON        MIX PCPN  27  25  93 CALM      30.13R
BRAINERD       CLOUDY    27   8  44 S3        30.13R
HIBBING        CLEAR     21   6  52 SE6       30.13R WCI  13
ALEXANDRIA     CLOUDY    29  16  58 SE6       30.12R WCI  23
SAINT CLOUD    MOCLDY    27  10  49 S3        30.15S
MINNEAPOLIS    MOCLDY    29   5  36 CALM      30.18R
$$

  *****  WEATHER ACROSS SOUTH DAKOTA  *****

CITY           SKY/WX    TMP DP  RH WIND       PRES   REMARKS
SIOUX FALLS    CLOUDY    33  22  63 SE13      30.06R WCI  24
BROOKINGS      NOT AVBL
WATERTOWN      CLOUDY    29  24  82 SE8       30.05R WCI  21
HURON          MOCLDY    30  27  88 E8        30.03R WCI  22
SISSETON         N/A     28  27  96 S9        30.08S WCI  19
ABERDEEN       CLOUDY    32  27  81 E7        30.04R
MITCHELL       CLOUDY    33  27  78 SE9       30.03R
PIERRE         PTCLDY    35  30  82 E8        29.94R
MOBRIDGE       MOCLDY    38  30  73 E8        29.92R
RAPID CITY     PTCLDY    45  33  63 NW10      29.94R
$$

  *****  SOME WEATHER IN NEARBY STATES *****

CITY           SKY/WX    TMP DP  RH WIND       PRES   REMARKS
GLASGOW MT     MOCLDY    58  34  40 SW7       29.85S
GREAT FALLS MT MOCLDY    53  32  44 W9        29.92S
CHEYENNE WY    MOCLDY    54  23  30 NW5       30.13R
SCOTTSBLUFF NE MOCLDY    53  33  46 CALM      30.01R
OMAHA NE       CLOUDY    37  20  50 SE10      30.11F
DES MOINES IA  CLOUDY    37  10  32 SE7       30.16S
DAVENPORT IA   CLEAR     25  11  55 E6        30.20R WCI  18
CHICAGO IL     FAIR      24  12  60 VRB6      30.20S WCI  17
EAU CLAIRE WI  PTCLDY    26   9  48 SW5       30.17R WCI  20
LA CROSSE WI   PTCLDY    29  13  51 CALM      30.19R
$$

  *****  SOME NATIONAL WEATHER *****

CITY           SKY/WX    TMP DP  RH WIND       PRES   REMARKS
LA GUARDIA NY  CLOUDY    43  26  51 NW8       29.79R
RALEIGH NC     MOCLDY    40  38  93 CALM      29.82S
ATLANTA GA     PTCLDY    45  29  53 NW12      29.98R
NEW ORLEANS LA PTCLDY    61  39  44 NE17      30.12R
OKLAHOMA CITY  MOCLDY    49  35  58 CALM      30.15R
ALBUQUERQUE NM CLEAR     68  13  12 NW12      30.16R
SALT LAKE CITY CLEAR     60  33  36 N5        30.14S
LOS ANGELES CA CLEAR     66  54  65 W6        30.01R
BOISE ID       CLEAR     65  42  43 SE9       29.96F
SEATTLE WA     CLOUDY    56  48  74 S9        29.97F
$$

*** WEATHER ACROSS MANITOBA...SASKATCHEWAN AND ONTARIO ***
                ***ONTARIO***

CITY           SKY/WX    TMP DP  RH WIND       PRES   REMARKS
GERALDTON      CLEAR      9  -9  43 W2        30.13S
THUNDER BAY    CLEAR     12   9  85 CALM      30.21R
SIOUX LOOKOUT  CLEAR      9   3  78 CALM      30.11S
TORONTO        MOCLDY    19   7  58 N17       30.03S WCI   4
BIG TROUT LK   CLEAR     18   1  49 W6        30.02S WCI   9
PICKLE LAKE    NOT AVBL
DRYDEN         CLEAR     23   5  46 S3        30.11S
KENORA         CLEAR     25   3  39 S5        30.11R WCI  19
$$
                *** MANITOBA***

CITY           SKY/WX    TMP DP  RH WIND       PRES   REMARKS
BRANDON        CLOUDY    28  28 100 SE9       30.02S WCI  20
DAUPHIN        CLOUDY    30  28  93 SE2       30.02S
ISLAND LAKE    CLEAR     23  10  58 S5        30.04F WCI  17
PILOT MOUND      N/A     28  28 100 SE13        N/A  WCI  18
THE PAS        CLOUDY    28  25  86 S9        29.97F WCI  20
THOMPSON       PTCLDY    30  14  51 SW10      29.94S WCI  21
WINNIPEG       CLOUDY    28  23  80 S9        30.12R WCI  20
LYNN LAKE      MOCLDY    28  18  64 SW6       29.82F WCI  22
CHURCHILL      CLEAR     25  18  74 SW9       29.77F WCI  15
GILLAM         CLEAR     28  14  54 SW12      29.92F WCI  18
$$
                ***SASKATCHEWAN***

CITY           SKY/WX    TMP DP  RH WIND       PRES   REMARKS
ESTEVAN        CLOUDY    36  34  93 E8        29.93S
KINDERSLEY     MOCLDY    45  41  87 SE15      29.78F
LLOYDMINSTER   PTCLDY    37  34  87 SE9       29.73F
PRINCE ALBERT  CLOUDY    34  30  86 S9        29.91S
REGINA         MOCLDY    36  34  93 SE9       29.92R
YORKTON        CLOUDY    32  28  86 SE9       29.96F WCI  24
N. BATTLEFORD  CLEAR     37  36  93 SE17      29.82F
LA RONGE       CLOUDY    34  30  86 S9        29.84F
SASKATOON      MOCLDY    36  34  93 SE14      29.88F
SWIFT CURRENT  CLEAR     46  37  71 SE13      29.82F
$$
NOTE: THESE ARE AUTOMATED STATIONS WITH LIMITED QUALITY CONTROL
      "FAIR" INDICATES FEW OR NO CLOUDS BELOW 12,000 FEET WITH NO
      SIGNIFICANT WEATHER AND/OR OBSTRUCTIONS TO VISIBILITY.
      SKY/WX - SKY CONDITION AND SIGNIFICANT WEATHER.
      TMP - AIR TEMPERATURE.    DP   - DEWPOINT TEMPERATURE.
      RH  - RELATIVE HUMIDITY.  PRES - PRESSURE.
      HX  - HEAT INDEX.         WCI  - WIND CHILL INDEX.
$



USA.gov is the U.S. government's official web portal to all federal, state and local government web resources and services.